Regional Weather Roundup
Issued by NWS Jackson, KY

Home | Current Version | Previous Version | Graphics & Text | Print | Product List | Glossary On
Versions: 1 2 3 4 5 6 7 8 9 10 11 12 13 14 15 16 17 18 19 20 21 22 23 24 25 26 27
000
ASUS43 KJKL 260310
RWRJKL

EAST KENTUCKY HOURLY WEATHER ROUNDUP
NATIONAL WEATHER SERVICE JACKSON KY
1100 PM EDT SUN SEP 25 2016

NOTE: "FAIR" INDICATES FEW OR NO CLOUDS BELOW 12,000 FEET WITH
NO SIGNIFICANT WEATHER AND/OR OBSTRUCTIONS TO VISIBILITY.

* THESE REPORTS ARE NOT UNDER NWS QUALITY CONTROL AND MAY NOT
  REPORT WEATHER SUCH AS PRECIPITATION AND FOG.

KYZ079-080-083-085-087-088-110-112-115-119-120-260400
...EASTERN KENTUCKY...

CITY           SKY/WX    TMP DP  RH WIND       PRES   REMARKS
JACKSON        CLEAR     75  65  70 VRB3      30.08F
LONDON         CLEAR     69  64  84 CALM      30.07F
SOMERSET*      CLEAR     68  66  94 CALM      30.07F
MONTICELLO*    CLEAR     65  63  93 CALM      30.08S
WILLIAMSBURG*  CLEAR     70  70 100 CALM      30.07F
MIDDLESBORO*   CLEAR     69  67  93 CALM      30.09F
HARLAN APT*    CLEAR     68  64  88 CALM      30.11S
PIKE CO APT*     N/A     73  65  75 S3        30.09F
BIG SANDY APT* CLEAR     71  66  85 CALM      30.08F
MOREHEAD APT*  CLEAR     72  64  78 CALM      30.07F
ASHLAND*       CLEAR     68  64  88 CALM      30.03S
$$

KYZ035-036-041-042-044-050-067-078-099-260400
...CENTRAL KENTUCKY...

CITY           SKY/WX    TMP DP  RH WIND       PRES   REMARKS
MT STERLING*   CLEAR     73  68  83 S6        30.06F
FLEMING/MASON* CLEAR     70  63  79 E3        30.05F
DANVILLE*      CLEAR     68  64  88 CALM      30.06F
LEXINGTON      CLEAR     74  65  73 CALM      30.05S
FRANKFORT      CLEAR     72  65  78 CALM      30.03S
LOUISVILLE     PTCLDY    78  65  63 CALM      30.01S
LEBANON*         N/A     72  64  78 CALM      30.05S
GLASGOW*       CLEAR     68  68 100 CALM      30.04S
BOWLING GREEN  CLEAR     72  66  81 E3        30.03S
$$

KYZ091>093-OHZ055-061-077-WVZ005-015-034-035-042-260400
...SOUTHERN OHIO/WEST VIRGINIA...

CITY           SKY/WX    TMP DP  RH WIND       PRES   REMARKS
COVINGTON      CLEAR     72  65  78 S3        30.04S
COLUMBUS       CLEAR     71  48  43 SE6       30.04S
DAYTON         CLEAR     70  63  78 SE9       30.04F
WILMINGTON     CLEAR     67  63  87 SE3       30.05S
HUNTINGTON     CLEAR     70  64  81 CALM      30.05F
CHARLESTON     CLEAR     66  61  84 CALM      30.07F
PINEVILLE*     CLEAR     65  62  89 MISG      30.17F FOG
BECKLEY        CLEAR     66  61  84 CALM      30.16S
BLUEFIELD      CLEAR     67  62  84 SE6       30.19S
LOGAN CO APT*    N/A     72  64  78 CALM      30.09F
$$

VAZ002-007-008-TNZ017-027-036-066-071-260400
...SOUTHWEST VIRGINIA/EAST TENNESSEE...

CITY           SKY/WX    TMP DP  RH WIND       PRES   REMARKS
WISE*          CLEAR     72  55  56 CALM      30.18F
JONESVILLE*      N/A     68  66  94 CALM      30.12S
ABINGDON*      PTCLDY    73  65  77 E5        30.15S
BRISTOL        PTCLDY    70  63  78 CALM      30.11R
MORRISTOWN*    CLEAR     75  63  64 CALM      30.07S
SEVIERVILLE*   CLEAR     72  63  73 CALM      30.06S
KNOXVILLE      CLEAR     77  63  61 CALM      30.05S
OAK RIDGE      CLEAR     75  66  73 CALM      30.07S
CROSSVILLE     CLEAR     68  65  90 CALM      30.12S
NASHVILLE      CLEAR     77  65  66 CALM      30.04S
$$

...KEY TO REMARKS...
VSB - VISIBILITY IN MILES
WCI - WIND CHILL INDEX
HX  - HEAT INDEX

$$




USA.gov is the U.S. government's official web portal to all federal, state and local government web resources and services.